Salida, CO

7:33 PM MDT on July 20, 2017 (GMT -0600)
Salida

Weather History for KANK - June, 2013

Change the Weather History Date:

Friday, June 21, 2013

  Actual Average (KGUC) Record (KGUC)
Temperature  
Mean Temperature 68 °F -  
Max Temperature 85 °F 73 °F 86 °F (2015)
Min Temperature 51 °F 38 °F 33 °F (2000)
Cooling Degree Days 3    
Growing Degree Days 18 (Base 50)    
Moisture  
Dew Point 17 °F    
Average Humidity 15    
Maximum Humidity 28    
Minimum Humidity 7    
Precipitation  
Precipitation 0.00 in - - ()
Sea Level Pressure  
Sea Level Pressure 30.18 in    
Wind  
Wind Speed 8 mph (WSW)    
Max Wind Speed 22 mph    
Max Gust Speed 31 mph    
Visibility 10 miles    
Events      
Averages and records for this station are not official NWS values.
T = Trace of Precipitation, MM = Missing Value Source: NWS Daily Summary

Daily Weather History Graph

Daily Weather History Graph

Search for Another Location

Airport or City:

Trip Planner

Search our weather history database for the weather conditions in past years. The results will help you decide how hot, cold, wet, or windy it might be!

Date:

Astronomy

Jun. 21, 2013 Rise Set
Actual Time 5:40 AM MDT 8:31 PM MDT
Civil Twilight 5:08 AM MDT 9:03 PM MDT
Nautical Twilight 4:28 AM MDT 9:43 PM MDT
Astronomical Twilight 3:42 AM MDT 10:29 PM MDT
Moon 6:46 PM MDT 3:57 AM MDT
Length of Visible Light 15h 55m
Length of Day
14h 51m
Waxing Gibbous, 95% of the Moon is Illuminated
Jun 21
Waxing Gibbous
Jun 23
Full
Jun 29
Last Quarter
Jul 8
New
Jul 15
First Quarter

Hourly Weather History & Observations

Time (MDT) Temp. Dew Point Humidity Pressure Visibility Wind Dir Wind Speed Gust Speed Precip Events Conditions
12:15 AM 61.7 °F 16.9 °F 18% 30.19 in 10.0 mi NW 8.1 mph - N/A   Clear
12:35 AM 62.8 °F 15.4 °F 16% 30.19 in 10.0 mi West 11.5 mph - N/A   Clear
12:55 AM 61.7 °F 16.0 °F 17% 30.19 in 10.0 mi West 8.1 mph - N/A   Clear
1:15 AM 59.7 °F 16.2 °F 18% 30.19 in 10.0 mi WNW 6.9 mph - N/A   Clear
1:35 AM 60.4 °F 14.7 °F 17% 30.19 in 10.0 mi WSW 9.2 mph - N/A   Clear
1:55 AM 59.2 °F 16.9 °F 19% 30.19 in 10.0 mi WNW 8.1 mph - N/A   Clear
2:15 AM 57.4 °F 17.2 °F 21% 30.19 in 10.0 mi West 5.8 mph - N/A   Clear
2:35 AM 58.1 °F 17.2 °F 20% 30.19 in 10.0 mi WNW 5.8 mph - N/A   Clear
2:55 AM 56.3 °F 17.6 °F 22% 30.19 in 10.0 mi NW 8.1 mph - N/A   Clear
3:15 AM 56.3 °F 17.6 °F 22% 30.20 in 10.0 mi WSW 3.5 mph - N/A   Clear
3:35 AM 55.0 °F 18.3 °F 24% 30.20 in 10.0 mi West 3.5 mph - N/A   Clear
3:55 AM 54.1 °F 18.1 °F 24% 30.21 in 10.0 mi West 4.6 mph - N/A   Clear
4:15 AM 53.2 °F 18.5 °F 26% 30.21 in 10.0 mi NW 5.8 mph - N/A   Clear
4:35 AM 52.9 °F 18.5 °F 26% 30.22 in 10.0 mi NW 3.5 mph - N/A   Clear
4:55 AM 52.5 °F 17.6 °F 25% 30.22 in 10.0 mi NNW 6.9 mph - N/A   Clear
5:15 AM 52.7 °F 18.3 °F 26% 30.23 in 10.0 mi North 8.1 mph - N/A   Clear
5:35 AM 52.3 °F 19.2 °F 27% 30.23 in 10.0 mi NNW 6.9 mph - N/A   Clear
5:55 AM 51.8 °F 19.4 °F 28% 30.23 in 10.0 mi Calm Calm - N/A   Clear
6:15 AM 51.6 °F 19.0 °F 28% 30.24 in 10.0 mi Calm Calm - N/A   Clear
6:35 AM 51.6 °F 19.4 °F 28% 30.24 in 10.0 mi NNW 6.9 mph - N/A   Clear
6:55 AM 53.2 °F 19.6 °F 27% 30.23 in 10.0 mi NNW 3.5 mph - N/A   Clear
7:15 AM 55.6 °F 19.9 °F 25% 30.24 in 10.0 mi North 4.6 mph - N/A   Clear
7:35 AM 55.9 °F 22.6 °F 28% 30.24 in 10.0 mi Calm Calm - N/A   Clear
7:55 AM 57.9 °F 20.8 °F 24% 30.24 in 10.0 mi Calm Calm - N/A   Clear
8:15 AM 62.1 °F 17.2 °F 18% 30.24 in 10.0 mi NNW 4.6 mph - N/A   Clear
8:35 AM 64.4 °F 20.8 °F 19% 30.24 in 10.0 mi NNE 4.6 mph - N/A   Clear
8:55 AM 68.0 °F 18.1 °F 15% 30.24 in 10.0 mi SSE 5.8 mph - N/A   Clear
9:15 AM 70.3 °F 15.4 °F 12% 30.24 in 10.0 mi SE 9.2 mph 17.3 mph N/A   Clear
9:35 AM 72.7 °F 13.6 °F 10% 30.23 in 10.0 mi SSE 11.5 mph 20.7 mph N/A   Clear
9:55 AM 74.5 °F 14.0 °F 10% 30.22 in 10.0 mi South 9.2 mph 18.4 mph N/A   Clear
10:15 AM 75.4 °F 14.5 °F 10% 30.21 in 10.0 mi South 11.5 mph 18.4 mph N/A   Clear
10:35 AM 76.8 °F 15.1 °F 10% 30.21 in 10.0 mi South 11.5 mph 17.3 mph N/A   Clear
10:55 AM 77.7 °F 14.5 °F 9% 30.21 in 10.0 mi South 9.2 mph 17.3 mph N/A   Clear
11:15 AM 78.3 °F 14.4 °F 9% 30.20 in 10.0 mi South 12.7 mph 18.4 mph N/A   Clear
11:35 AM 79.0 °F 14.5 °F 9% 30.20 in 10.0 mi South 10.4 mph 19.6 mph N/A   Clear
11:55 AM 79.9 °F 14.0 °F 8% 30.19 in 10.0 mi SSE 8.1 mph 19.6 mph N/A   Clear
12:15 PM 81.5 °F 14.7 °F 8% 30.19 in 10.0 mi SSE 12.7 mph 17.3 mph N/A   Clear
12:35 PM 82.4 °F 13.8 °F 8% 30.17 in 10.0 mi Calm Calm - N/A   Clear
12:55 PM 83.1 °F 14.5 °F 8% 30.17 in 10.0 mi SE 11.5 mph 17.3 mph N/A   Clear
1:15 PM 84.2 °F 15.4 °F 8% 30.15 in 10.0 mi SSE 9.2 mph 18.4 mph N/A   Clear
1:35 PM 83.8 °F 15.1 °F 8% 30.15 in 10.0 mi ESE 6.9 mph 21.9 mph N/A   Clear
1:55 PM 83.3 °F 15.3 °F 8% 30.14 in 10.0 mi East 10.4 mph - N/A   Clear
2:15 PM 83.5 °F 14.5 °F 8% 30.14 in 10.0 mi SW 13.8 mph 20.7 mph N/A   Clear
2:35 PM 84.6 °F 14.7 °F 7% 30.14 in 10.0 mi South 12.7 mph 24.2 mph N/A   Clear
2:55 PM 84.2 °F 14.2 °F 7% 30.13 in 10.0 mi WSW 10.4 mph 16.1 mph N/A   Clear
3:15 PM 83.1 °F 14.4 °F 8% 30.12 in 10.0 mi South 5.8 mph - N/A   Clear
3:35 PM 82.2 °F 13.5 °F 8% 30.12 in 10.0 mi South 6.9 mph 17.3 mph N/A   Clear
3:55 PM 82.0 °F 13.3 °F 8% 30.11 in 7.0 mi SE 8.1 mph 17.3 mph N/A   Clear
4:15 PM 81.5 °F 13.6 °F 8% 30.11 in 5.0 mi SSE 8.1 mph 21.9 mph N/A   Scattered Clouds
4:35 PM 81.1 °F 13.6 °F 8% 30.10 in 5.0 mi SSE 9.2 mph 27.6 mph N/A   Scattered Clouds
4:55 PM 84.2 °F 13.5 °F 7% 30.10 in 7.0 mi SSW 5.8 mph 17.3 mph N/A   Scattered Clouds
5:15 PM 82.6 °F 14.9 °F 8% 30.09 in 7.0 mi SSW 11.5 mph 16.1 mph N/A   Scattered Clouds
5:35 PM 82.9 °F 15.1 °F 8% 30.09 in 7.0 mi SW 6.9 mph - N/A   Clear
5:55 PM 85.5 °F 16.2 °F 8% 30.09 in 10.0 mi West 15.0 mph 24.2 mph N/A   Clear
6:15 PM 84.2 °F 16.3 °F 8% 30.10 in 10.0 mi West 18.4 mph 23.0 mph N/A   Clear
6:35 PM 81.3 °F 18.3 °F 10% 30.11 in 10.0 mi WSW 21.9 mph 31.1 mph N/A   Clear
6:55 PM 79.9 °F 18.1 °F 10% 30.11 in 10.0 mi WSW 21.9 mph 28.8 mph N/A   Clear
7:15 PM 79.5 °F 17.8 °F 10% 30.12 in 10.0 mi WSW 19.6 mph - N/A   Clear
7:35 PM 78.1 °F 19.4 °F 11% 30.13 in 10.0 mi WSW 12.7 mph 21.9 mph N/A   Clear
7:55 PM 75.2 °F 19.4 °F 12% 30.14 in 10.0 mi WSW 12.7 mph - N/A   Clear
8:15 PM 75.2 °F 17.4 °F 11% 30.15 in 10.0 mi West 13.8 mph - N/A   Clear
8:35 PM 72.9 °F 19.2 °F 13% 30.15 in 10.0 mi WSW 16.1 mph - N/A   Clear
8:55 PM 71.2 °F 19.9 °F 14% 30.15 in 10.0 mi WSW 11.5 mph - N/A   Clear
9:15 PM 71.1 °F 19.6 °F 14% 30.16 in 10.0 mi WSW 11.5 mph - N/A   Clear
9:35 PM 70.7 °F 19.0 °F 14% 30.17 in 10.0 mi WSW 9.2 mph - N/A   Clear
9:55 PM 70.2 °F 18.5 °F 14% 30.17 in 10.0 mi West 13.8 mph - N/A   Clear
10:15 PM 68.4 °F 18.9 °F 15% 30.18 in 10.0 mi WSW 10.4 mph - N/A   Clear
10:35 PM 68.0 °F 18.9 °F 15% 30.18 in 10.0 mi West 10.4 mph - N/A   Clear
10:55 PM 66.7 °F 19.9 °F 17% 30.18 in 10.0 mi West 12.7 mph - N/A   Clear
11:15 PM 63.9 °F 21.2 °F 20% 30.19 in 10.0 mi WSW 9.2 mph - N/A   Clear
11:35 PM 63.5 °F 21.2 °F 20% 30.19 in 10.0 mi SW 12.7 mph - N/A   Clear
11:55 PM 63.1 °F 20.8 °F 20% 30.19 in 10.0 mi SW 12.7 mph - N/A   Clear